Погода в Чонгаре

Украина / Херсонская область     46°01′49″N   34°32′44″E
темп.,
°C
ветер,
м/с
пор.,
м/с
влажн.,
%
обл.,
%
осадки,
мм/ч
давл.,
гПа
погр.,
м
12 мая, ср
ср1200:00+12ссв44602 0.0 1014390
03:00+10ссв55753 0.0 1013296
06:00+10св43755 0.0 1013320
09:00+10ссв22723 0.0 1013260
12:00+11вюв22674 0.0 1013243
15:00+12в32635 0.0 1013247
18:00+13вюв436687 0.0 1013348
21:00+14вюв446936 0.0 1013393
13 мая, чт
чт1300:00+14в3374100 0.0 1012399
03:00+14вюв23825 0.0 1012294
06:00+14ююв11817 0.0 1012129
09:00+14в45776 0.0 1013333
12:00+15в7873100 0.0 1012308
15:00+15в7985100 0.0 1011310
18:00+15в798678 0.0 1011225
21:00+16в710870 0.0 1010167
14 мая, пт
пт1400:00+16юв56820 0.0 1009115
03:00+14зюз45814 0.0 1010116
06:00+15зсз3384100 0.0 1010107
09:00+15зсз3378100 0.0 101178
12:00+16ссв1171100 0.0 101119
15:00+18в336399 0.0 101131
18:00+18юв3371100 0.0 101136
21:00+17зсз44760 0.0 101124
15 мая, сб
сб1500:00+16зюз458542 0.0 101281
03:00+15з56840 0.0 1013121
06:00+15з45776 0.0 1013128
09:00+16з227425 0.0 101451
12:00+16всв22730 0.0 101446
15:00+18в346792 0.0 101354
18:00+18юв4572100 0.0 101358
21:00+17юв447755 0.0 101236
16 мая, вс
вс1600:00+17вюв33795 0.0 101118
03:00+16св468099 0.0 101177
06:00+16всв798185 0.0 1010137
09:00+16всв6987100 0.0 1009152
12:00+16всв71089100 0.0 1008148
15:00+16всв7129074 0.1 1006154
18:00+18всв61189100 0.1 1005118
21:00+18всв5787100 0.1 100464